Weather History for La Junta, CO

Change the Weather History Date:

Monday, February 18, 2013

  Actual Average Record
Temperature  
Mean Temperature 34 °F 36 °F  
Max Temperature 47 °F 50 °F 74 °F (1986)
Min Temperature 21 °F 22 °F -4 °F (1993)
Degree Days  
Heating Degree Days 31 29  
Month to date heating degree days 487 568  
Since 1 July heating degree days 3432 3825  
Cooling Degree Days 0 0  
Month to date cooling degree days 0 0  
Year to date cooling degree days 0 0  
Moisture  
Dew Point 13 °F    
Average Humidity 38    
Maximum Humidity 57    
Minimum Humidity 19    
Precipitation  
Precipitation 0.00 in 0.01 in 0.09 in (1947)
Month to date precipitation 0.08 0.21  
Year to date precipitation 0.10 0.50  
Sea Level Pressure  
Sea Level Pressure 29.95 in    
Wind  
Wind Speed 11 mph (North)    
Max Wind Speed 32 mph    
Max Gust Speed 40 mph    
Visibility 10 miles    
Events      
T = Trace of Precipitation, MM = Missing Value Source: NWS Daily Summary

Daily Weather History Graph

Daily Weather History Graph

Search for Another Location

Airport:

Trip Planner

Search our weather history database for the weather conditions in past years. The results will help you decide how hot, cold, wet, or windy it might be!

Date:

Astronomy

Feb. 18, 2013 Rise Set
Actual Time 6:40 AM MST 5:36 PM MST
Civil Twilight 6:13 AM MST 6:03 PM MST
Nautical Twilight 5:42 AM MST 6:33 PM MST
Astronomical Twilight 5:12 AM MST 7:04 PM MST
Moon 11:26 AM MST (2/18) 1:19 AM MST (2/18)
Length of Visible Light 11h 49m
Length of Day
10h 56m
First Quarter, 59% of the Moon is Illuminated
Feb 18
First Quarter
Feb 25
Full
Mar 4
Last Quarter
Mar 11
New
Mar 19
First Quarter

Hourly Weather History & Observations

Time (MST) Temp. Windchill Dew Point Humidity Pressure Visibility Wind Dir Wind Speed Gust Speed Precip Events Conditions
12:53 AM 37.9 °F 27.3 °F 21.0 °F 51% 29.65 in 10.0 mi North 21.9 mph 34.5 mph N/A   Clear
1:53 AM 34.0 °F 23.0 °F 17.1 °F 50% 29.65 in 10.0 mi North 18.4 mph - N/A   Clear
2:53 AM 32.0 °F 24.2 °F 17.1 °F 54% 29.72 in 10.0 mi NW 9.2 mph - N/A   Clear
3:53 AM 32.0 °F 22.1 °F 16.0 °F 52% 29.74 in 10.0 mi NNW 13.8 mph 26.5 mph N/A   Clear
4:53 AM 33.1 °F 25.5 °F 16.0 °F 50% 29.81 in 10.0 mi NW 9.2 mph - N/A   Overcast
5:53 AM 34.0 °F 23.4 °F 16.0 °F 48% 29.87 in 10.0 mi NNW 17.3 mph - N/A   Overcast
7:53 AM 34.0 °F 23.0 °F 16.0 °F 48% 29.97 in 10.0 mi North 18.4 mph 23.0 mph N/A   Overcast
8:53 AM 34.0 °F 23.0 °F 17.1 °F 50% 30.00 in 10.0 mi North 18.4 mph 23.0 mph N/A   Mostly Cloudy
9:53 AM 37.9 °F 29.2 °F 17.1 °F 43% 30.02 in 10.0 mi NNW 15.0 mph - N/A   Overcast
10:53 AM 42.1 °F 33.9 °F 15.1 °F 34% 30.01 in 10.0 mi NNW 17.3 mph - N/A   Scattered Clouds
11:53 AM 43.0 °F 36.4 °F 12.0 °F 28% 30.00 in 10.0 mi NNW 12.7 mph 19.6 mph N/A   Clear
12:53 PM 45.0 °F 38.9 °F 12.9 °F 27% 29.97 in 10.0 mi West 12.7 mph 18.4 mph N/A   Scattered Clouds
1:53 PM 46.9 °F - 10.9 °F 23% 29.96 in 10.0 mi West 11.5 mph - N/A   Overcast
2:53 PM 46.0 °F 43.9 °F 10.0 °F 23% 29.96 in 10.0 mi Variable 4.6 mph - N/A   Clear
3:53 PM 46.9 °F - 7.0 °F 20% 29.96 in 10.0 mi North 8.1 mph - N/A   Clear
4:53 PM 45.0 °F 42.6 °F 7.0 °F 21% 29.97 in 10.0 mi ESE 4.6 mph - N/A   Clear
5:53 PM 37.9 °F 33.5 °F 7.0 °F 28% 30.01 in 10.0 mi East 5.8 mph - N/A   Clear
6:53 PM 37.9 °F 34.4 °F 8.1 °F 29% 30.04 in 10.0 mi East 4.6 mph - N/A   Clear
7:53 PM 36.0 °F 32.1 °F 7.0 °F 30% 30.07 in 10.0 mi ESE 4.6 mph - N/A   Clear
8:53 PM 28.9 °F 21.1 °F 10.0 °F 45% 30.12 in 10.0 mi ENE 8.1 mph - N/A   Clear
9:53 PM 28.0 °F 20.8 °F 10.9 °F 49% 30.14 in 10.0 mi SSE 6.9 mph - N/A   Clear
10:53 PM 21.0 °F 12.4 °F 8.1 °F 57% 30.16 in 10.0 mi ENE 6.9 mph - N/A   Clear
11:53 PM 23.0 °F 15.8 °F 10.9 °F 60% 30.16 in 10.0 mi East 5.8 mph - N/A   Clear